User: anonymous   Login
Location: Cabeza de los Veneras
(40.2000°N, 5.2000°W)
Time: 15:09:08
(UTC+00:00)
Language:

Cosmos 1844 Rocket - Orbit

View from above orbital plane
View from above orbital plane
View from above satellite
View from above satellite

Ground track
Ground track

The orbit data is extracted from the following two-line orbital elements,

1 17974U 87041B   24165.79941030 -.00000116  00000-0 -33819-4 0  9997
2 17974  71.0088 289.1065 0011598  94.2950  17.6293 14.17455645918253
Epoch (UTC): 13 June 2024 19:11:09
Eccentricity: 0.0011598
inclination: 71.0088°
perigee height: 825 km
apogee height: 842 km
right ascension of ascending node: 289.1065°
argument of perigee: 94.2950°
revolutions per day: 14.17455645
mean anomaly at epoch: 17.6293°
orbit number at epoch: 91825

The dashed part of the orbit path shows where the satellite is in the earth's shadow,  

DLR